Location: Dompnac
(44.5644°N, 4.1026°E)
Time: 11:05:44
(UTC+00:00)

Cosmos 1975 - Pass Details

Date: 19 September 2020
Orbit: 540 x 563 km, 82.5° (Epoch: 29 October)

Event Time Altitude Azimuth Distance (km) Brightness Sun altitude
Rises 18:39:19 0° 197° (SSW) 2,741 6.5 -10.2°
Reaches altitude 10° 18:41:31 10° 202° (SSW) 1,850 5.6 -10.6°
Maximum altitude 18:45:31 56° 281° (W) 673 3.7 -11.3°
Drops below altitude 10° 18:49:34 10° 0° (N) 1,861 5.7 -12.0°
Sets 18:51:47 0° 5° (N) 2,759 6.5 -12.4°
